Hourly Weather Barmer

Today, 24 June, Thursday

Time Temperature Precipitation Wind Pressure Humidity
00:00 +35°C° 0 mm 7 mps 733 mmHg 48%
01:00 +34°C° 0 mm 7 mps 733 mmHg 54%
02:00 +33°C° 0 mm 7 mps 733 mmHg 60%
03:00 +32°C° 0 mm 7 mps 733 mmHg 62%
04:00 +32°C° 0 mm 7 mps 733 mmHg 65%
05:00 +30°C° 0 mm 6 mps 733 mmHg 68%
06:00 +30°C° 0 mm 6 mps 733 mmHg 65%
07:00 +32°C° 0 mm 6 mps 734 mmHg 62%
08:00 +32°C° 0 mm 6 mps 734 mmHg 60%
09:00 +34°C° 0 mm 6 mps 734 mmHg 52%
10:00 +36°C° 0 mm 7 mps 734 mmHg 45%
11:00 +38°C° 0 mm 7 mps 734 mmHg 38%
12:00 +39°C° 0 mm 7 mps 733 mmHg 35%
13:00 +40°C° 0 mm 7 mps 733 mmHg 33%
14:00 +41°C° 0 mm 7 mps 733 mmHg 30%
15:00 +41°C° 0 mm 7 mps 732 mmHg 29%
16:00 +41°C° 0 mm 8 mps 732 mmHg 29%
17:00 +41°C° 0 mm 8 mps 731 mmHg 28%
18:00 +40°C° 0 mm 8 mps 732 mmHg 30%
19:00 +39°C° 0 mm 8 mps 732 mmHg 33%
20:00 +38°C° 0 mm 8 mps 733 mmHg 35%
21:00 +37°C° 0 mm 8 mps 733 mmHg 40%
22:00 +35°C° 0 mm 8 mps 733 mmHg 45%
23:00 +34°C° 0 mm 8 mps 733 mmHg 50%

Tomorrow, 25 June, Friday

Time Temperature Precipitation Wind Pressure Humidity
00:00 +33°C° 0 mm 8 mps 733 mmHg 55%
01:00 +32°C° 0 mm 8 mps 733 mmHg 60%
02:00 +30°C° 0 mm 7 mps 733 mmHg 64%
03:00 +30°C° 0 mm 7 mps 733 mmHg 67%
04:00 +29°C° 0 mm 7 mps 733 mmHg 70%
05:00 +29°C° 0 mm 7 mps 733 mmHg 72%
06:00 +29°C° 0 mm 8 mps 733 mmHg 68%
07:00 +31°C° 0 mm 8 mps 733 mmHg 63%
08:00 +31°C° 0 mm 8 mps 733 mmHg 59%
09:00 +33°C° 0 mm 9 mps 733 mmHg 53%
10:00 +35°C° 0 mm 9 mps 733 mmHg 47%
11:00 +37°C° 0 mm 9 mps 733 mmHg 40%
12:00 +38°C° 0 mm 9 mps 732 mmHg 37%
13:00 +39°C° 0 mm 8 mps 732 mmHg 34%
14:00 +41°C° 0 mm 8 mps 731 mmHg 31%
15:00 +41°C° 0 mm 8 mps 731 mmHg 31%
16:00 +41°C° 0 mm 8 mps 731 mmHg 31%
17:00 +41°C° 0 mm 8 mps 730 mmHg 30%
18:00 +40°C° 0 mm 8 mps 731 mmHg 34%
19:00 +39°C° 0 mm 8 mps 731 mmHg 37%
20:00 +38°C° 0 mm 8 mps 731 mmHg 41%
21:00 +37°C° 0 mm 8 mps 731 mmHg 46%
22:00 +34°C° 0 mm 8 mps 732 mmHg 52%
23:00 +33°C° 0 mm 8 mps 732 mmHg 58%

Day after tomorrow, 26 June, Saturday

Time Temperature Precipitation Wind Pressure Humidity
00:00 +32°C° 0 mm 9 mps 732 mmHg 62%
01:00 +32°C° 0 mm 9 mps 731 mmHg 65%
02:00 +31°C° 0 mm 9 mps 731 mmHg 69%
03:00 +29°C° 0 mm 8 mps 731 mmHg 71%
04:00 +29°C° 0 mm 8 mps 732 mmHg 73%
05:00 +28°C° 0 mm 7 mps 732 mmHg 75%
06:00 +29°C° 0 mm 8 mps 732 mmHg 70%
07:00 +31°C° 0 mm 8 mps 733 mmHg 65%
08:00 +32°C° 0 mm 8 mps 733 mmHg 61%
09:00 +33°C° 0 mm 8 mps 733 mmHg 54%
10:00 +35°C° 0 mm 8 mps 733 mmHg 48%
11:00 +37°C° 0 mm 8 mps 733 mmHg 42%
12:00 +38°C° 0 mm 8 mps 733 mmHg 38%
13:00 +40°C° 0 mm 8 mps 732 mmHg 35%
14:00 +41°C° 0 mm 8 mps 732 mmHg 31%
15:00 +41°C° 0 mm 8 mps 732 mmHg 31%
16:00 +41°C° 0 mm 8 mps 731 mmHg 31%
17:00 +41°C° 0 mm 8 mps 731 mmHg 30%
18:00 +40°C° 0 mm 8 mps 731 mmHg 34%
19:00 +39°C° 0 mm 8 mps 732 mmHg 39%
20:00 +38°C° 0 mm 8 mps 732 mmHg 43%
21:00 +37°C° 0 mm 8 mps 732 mmHg 48%
22:00 +34°C° 0 mm 8 mps 733 mmHg 53%
23:00 +33°C° 0 mm 8 mps 733 mmHg 58%

27 June, Sunday

Time Temperature Precipitation Wind Pressure Humidity
00:00 +32°C° 0 mm 8 mps 733 mmHg 61%
01:00 +32°C° 0 mm 8 mps 733 mmHg 64%
02:00 +31°C° 0 mm 8 mps 733 mmHg 68%
03:00 +29°C° 0 mm 7 mps 734 mmHg 69%
04:00 +29°C° 0 mm 7 mps 734 mmHg 71%
05:00 +29°C° 0 mm 6 mps 734 mmHg 73%
06:00 +29°C° 0 mm 6 mps 735 mmHg 68%
07:00 +30°C° 0 mm 7 mps 735 mmHg 64%
08:00 +32°C° 0 mm 7 mps 736 mmHg 59%
09:00 +33°C° 0 mm 7 mps 735 mmHg 52%
10:00 +35°C° 0 mm 7 mps 735 mmHg 45%
11:00 +38°C° 0 mm 7 mps 735 mmHg 38%
12:00 +39°C° 0 mm 7 mps 735 mmHg 34%
13:00 +40°C° 0 mm 7 mps 734 mmHg 31%
14:00 +41°C° 0 mm 6 mps 734 mmHg 27%
15:00 +42°C° 0 mm 6 mps 733 mmHg 27%
16:00 +42°C° 0 mm 6 mps 733 mmHg 26%
17:00 +42°C° 0 mm 6 mps 733 mmHg 25%
18:00 +41°C° 0 mm 7 mps 733 mmHg 29%
19:00 +40°C° 0 mm 7 mps 733 mmHg 32%
20:00 +39°C° 0 mm 8 mps 734 mmHg 35%
21:00 +38°C° 0 mm 8 mps 734 mmHg 41%
22:00 +35°C° 0 mm 8 mps 734 mmHg 48%
23:00 +34°C° 0 mm 8 mps 734 mmHg 54%

28 June, Monday

Time Temperature Precipitation Wind Pressure Humidity
00:00 +33°C° 0 mm 8 mps 734 mmHg 58%
01:00 +32°C° 0 mm 8 mps 734 mmHg 62%
02:00 +31°C° 0 mm 8 mps 734 mmHg 66%
03:00 +31°C° 0 mm 8 mps 734 mmHg 69%
04:00 +29°C° 0 mm 8 mps 734 mmHg 71%
05:00 +29°C° 0 mm 8 mps 734 mmHg 74%
06:00 +29°C° 0 mm 8 mps 734 mmHg 69%
07:00 +31°C° 0 mm 8 mps 734 mmHg 64%
08:00 +32°C° 0 mm 8 mps 734 mmHg 59%
09:00 +33°C° 0 mm 7 mps 734 mmHg 52%
10:00 +35°C° 0 mm 7 mps 734 mmHg 45%
11:00 +38°C° 0 mm 6 mps 734 mmHg 38%
12:00 +39°C° 0 mm 6 mps 734 mmHg 34%
13:00 +41°C° 0 mm 6 mps 733 mmHg 30%
14:00 +42°C° 0 mm 6 mps 733 mmHg 27%
15:00 +42°C° 0 mm 6 mps 732 mmHg 26%
16:00 +44°C° 0 mm 6 mps 732 mmHg 25%
17:00 +43°C° 0 mm 5 mps 732 mmHg 24%
18:00 +42°C° 0 mm 6 mps 732 mmHg 28%
19:00 +41°C° 0 mm 7 mps 732 mmHg 31%
20:00 +40°C° 0 mm 8 mps 732 mmHg 35%
21:00 +38°C° 0 mm 8 mps 733 mmHg 42%
22:00 +37°C° 0 mm 8 mps 733 mmHg 48%
23:00 +34°C° 0 mm 9 mps 733 mmHg 55%

29 June, Tuesday

Time Temperature Precipitation Wind Pressure Humidity
00:00 +33°C° 0 mm 8 mps 733 mmHg 59%
01:00 +32°C° 0 mm 8 mps 733 mmHg 63%
02:00 +31°C° 0 mm 8 mps 732 mmHg 67%
03:00 +31°C° 0 mm 8 mps 733 mmHg 69%
04:00 +29°C° 0 mm 8 mps 733 mmHg 70%
05:00 +29°C° 0 mm 7 mps 733 mmHg 72%
06:00 +29°C° 0 mm 8 mps 733 mmHg 67%
07:00 +31°C° 0 mm 8 mps 733 mmHg 63%
08:00 +32°C° 0 mm 8 mps 734 mmHg 58%
09:00 +34°C° 0 mm 8 mps 734 mmHg 52%
10:00 +35°C° 0 mm 8 mps 734 mmHg 45%
11:00 +38°C° 0 mm 9 mps 734 mmHg 38%
12:00 +39°C° 0 mm 9 mps 733 mmHg 35%
13:00 +40°C° 0 mm 9 mps 733 mmHg 32%
14:00 +43°C° 0 mm 9 mps 732 mmHg 29%
15:00 +43°C° 0 mm 9 mps 732 mmHg 30%
16:00 +43°C° 0 mm 9 mps 731 mmHg 30%
17:00 +43°C° 0 mm 9 mps 731 mmHg 31%
18:00 +40°C° 0 mm 9 mps 731 mmHg 34%
19:00 +39°C° 0 mm 9 mps 732 mmHg 37%
20:00 +38°C° 0 mm 9 mps 732 mmHg 41%
21:00 +35°C° 0 mm 9 mps 732 mmHg 46%
22:00 +34°C° 0 mm 9 mps 732 mmHg 52%
23:00 +33°C° 0 mm 9 mps 732 mmHg 57%
Show more

We Need Your Consent

Meteoprog and our Service Providers may store and access personal data such as cookies, device identifiers or other similar technologies on your device and process such data to personalise content and ads, as well as provide social media features and to analyse the traffic.

  • Store and/or access information on your device

    Cookies, device identifiers or other information can be stored or accessed on your device for the purposes indicated above.

  • Personalised ads and content, ad and content measurement, audience insights, and products development

    Ads and content can be personalised based on a profile. More data can be added to better personalise ads and content. Ad and content performance can be measured. Insights about the audience who saw the ads and content can be derived. Such data can be used to develop or improve user’s experience, systems and software.

By clicking ‘I Agree’ you will allow the use of indicated cookies, device identifiers, web beacons or other similar technologies. Your settings can be changed in the browser on your device.

For certain purposes, legitimate interests may be relied on, rather than consent. You can read more about this in our Privacy and Cookie Policy.